Regional Weather Roundup
Issued by NWS Goodland, KS

Home | Current Version | Previous Version | Text Only | Print | Product List | Glossary Off
Versions: 1 2 3 4 5 6 7 8 9 10 11 12 13 14 15 16 17 18 19 20 21 22 23 24 25 26 27 28 29 30 31 32 33 34 35 36 37 38 39 40 41 42 43 44 45 46 47 48 49 50

000
ASUS43 KGLD 231008
RWRGLD

GOODLAND FORECAST AREA HOURLY WEATHER ROUNDUP
NATIONAL WEATHER SERVICE GOODLAND KS
400 AM MDT TUE SEP 23 2014

...OFFICIAL OBSERVATIONS...

CITY           SKY/WX    TMP DP  RH WIND       PRES   REMARKS
GOODLAND KS    PTCLDY    56  55  97 S10       30.06S
HILL CITY KS   CLOUDY    58  56  93 S12       30.06R
IMPERIAL NEB   PTCLDY    57  54  89 S7        30.03F
MCCOOK NEB     CLOUDY    56  55  97 E7        30.06S
AKRON CO       MOCLDY    55  55 100 S6        30.09R
BURLINGTON CO  PTCLDY    58  55  90 S8        30.07F
LIMON CO       PTCLDY    51  49  92 W3        30.14S
$$

...UNOFFICIAL OBSERVATIONS...

CITY           SKY/WX    TMP DP  RH WIND       PRES   REMARKS
COLBY KS       CLEAR     57  57 100 SE9       30.06
GOVE KS          N/A     59  32  36 MISG        N/A
NORTON KS      CLEAR     55  52  88 S9        30.05
SHARON SPRINGS   N/A     61  55  81 S12         N/A
TRIBUNE KS     CLEAR     63  61  94 SE9       30.07F
WAKEENEY KS      N/A     58  57  97 MISG        N/A
KIT CARSON CO    N/A     58  53  85 CALM        N/A
YUMA CO          N/A     56  55  97 S5          N/A
$$


USA.gov is the U.S. government's official web portal to all federal, state and local government web resources and services.